Accueil
METAR-TAF:

METAR-TAF

Aéroports :

Renton Municipal Airport

Renton, Washington, États-Unis

latitude: 47-29-40N, longitude: 122-12-46W, altitude: 8 m

Observation

Le bulletin a été fait il y a 28 minutes, à 16:53 UTC
Vent calme
Température 2°C
Humidité 87%
Pression 1022 hPa
Visibilité: 12.9 km
Quelques nuages à une hauteur de 200 ft

METAR: KRNT 191653Z 00000KT 8SM FEW002 02/00 A3017 RMK AO2 SLP220 T00170000

Heure: 09:21 (17:21 UTC)


TAF: absent

Observations et prévisions météorologiques de plus de 4000 aéroports (messages METAR et TAF).

Les stations disponibles sont représentées par des disques jaunes et rouges sur la carte.

Passer la souris dessus pour voir le nom de la station.

Cliquer dessus pour voir les observations et prévisions météorologiques.

Pour changer de carte: cliquez sur les boutons verts avec une croix noire pour zoomer, sur le bouton vert avec un tiret pour effectuer un zoom arrière, ou sur les flèches vertes pour les cartes adjacentes.


METAR-TAF: